Weather History for KLAS - March, 2012

Change the Weather History Date:

Wednesday, March 7, 2012

  Actual Average Record
Temperature  
Mean Temperature 52 °F 58 °F  
Max Temperature 57 °F 68 °F 84 °F (1972)
Min Temperature 47 °F 48 °F 27 °F (1940)
Degree Days  
Heating Degree Days 13 7  
Month to date heating degree days 66 57  
Since 1 July heating degree days 1729 1748  
Cooling Degree Days 0 0  
Month to date cooling degree days 0 0  
Year to date cooling degree days 0 1  
Moisture  
Dew Point 13 °F    
Average Humidity 29    
Maximum Humidity 40    
Minimum Humidity 17    
Precipitation  
Precipitation 0.00 in 0.02 in 0.65 in (1992)
Month to date precipitation 0.00 0.15  
Year to date precipitation 0.06 1.45  
Snow  
Snow 0.00 in 0.00 in 0.00 in (2014)
Month to date snowfall 0.0 0.0  
Since 1 July snowfall 0.0 0.3  
Snow Depth 0.00 in    
Sea Level Pressure  
Sea Level Pressure 29.94 in    
Wind  
Wind Speed 13 mph (NNW)    
Max Wind Speed 23 mph    
Max Gust Speed 30 mph    
Visibility 10 miles    
Events      
T = Trace of Precipitation, MM = Missing Value Source: NWS Daily Summary

Daily Weather History Graph

Daily Weather History Graph

Search for Another Location

Airport or City:

Trip Planner

Search our weather history database for the weather conditions in past years. The results will help you decide how hot, cold, wet, or windy it might be!

Date:

Astronomy

Mar. 07, 2012 Rise Set
Actual Time 6:01 AM PST 5:41 PM PST
Civil Twilight 5:36 AM PST 6:07 PM PST
Nautical Twilight 5:06 AM PST 6:36 PM PST
Astronomical Twilight 4:36 AM PST 7:06 PM PST
Moon 5:21 PM PST (3/7) 5:14 AM PST (3/7)
Length of Visible Light 12h 30m
Length of Day
11h 39m
Full, 100% of the Moon is Illuminated
Mar 7
Full
Mar 8
Full
Mar 14
Last Quarter
Mar 22
New
Mar 30
First Quarter

Hourly Weather History & Observations

Time (PST) Temp. Windchill Dew Point Humidity Pressure Visibility Wind Dir Wind Speed Gust Speed Precip Events Conditions
12:56 AM 43.0 °F 36.4 °F 7.0 °F 23% 29.65 in 10.0 mi WNW 12.7 mph 25.3 mph N/A   Mostly Cloudy
1:56 AM 42.1 °F 34.5 °F 9.0 °F 26% 29.67 in 10.0 mi NW 15.0 mph 25.3 mph N/A   Mostly Cloudy
2:56 AM 41.0 °F 32.5 °F 7.0 °F 25% 29.69 in 10.0 mi NW 17.3 mph 27.6 mph N/A   Mostly Cloudy
3:56 AM 39.9 °F 31.1 °F 6.1 °F 25% 29.72 in 10.0 mi NW 17.3 mph 31.1 mph N/A   Scattered Clouds
4:56 AM 39.0 °F 29.6 °F 9.0 °F 29% 29.76 in 10.0 mi NNW 18.4 mph 27.6 mph N/A   Partly Cloudy
5:56 AM 37.0 °F 27.0 °F 12.9 °F 37% 29.81 in 10.0 mi NW 18.4 mph 32.2 mph N/A   Mostly Cloudy
6:56 AM 37.9 °F 27.1 °F 15.1 °F 39% 29.87 in 10.0 mi NW 23.0 mph 33.4 mph N/A   Mostly Cloudy
7:56 AM 39.9 °F 30.0 °F 15.1 °F 36% 29.92 in 10.0 mi NW 21.9 mph 39.1 mph N/A   Mostly Cloudy
8:19 AM 41.0 °F 32.5 °F 15.8 °F 36% 29.93 in 10.0 mi NW 17.3 mph 34.5 mph N/A   Scattered Clouds
8:56 AM 42.1 °F 34.2 °F 15.1 °F 34% 29.94 in 10.0 mi NW 16.1 mph 31.1 mph N/A   Scattered Clouds
9:56 AM 46.0 °F 38.8 °F 14.0 °F 28% 29.95 in 10.0 mi NNW 18.4 mph 27.6 mph N/A   Scattered Clouds
10:56 AM 48.0 °F - 12.9 °F 24% 29.97 in 10.0 mi NNW 13.8 mph 19.6 mph N/A   Scattered Clouds
11:56 AM 51.1 °F - 10.9 °F 20% 29.98 in 10.0 mi NNW 20.7 mph 29.9 mph N/A   Scattered Clouds
12:56 PM 53.1 °F - 10.9 °F 19% 29.99 in 10.0 mi NNW 12.7 mph 20.7 mph N/A   Partly Cloudy
1:56 PM 54.0 °F - 10.9 °F 18% 29.99 in 10.0 mi Variable 6.9 mph 18.4 mph N/A   Scattered Clouds
2:56 PM 55.0 °F - 12.0 °F 18% 30.01 in 10.0 mi Variable 3.5 mph 20.7 mph N/A   Scattered Clouds
3:56 PM 55.9 °F - 12.0 °F 18% 30.01 in 10.0 mi NNW 8.1 mph 19.6 mph N/A   Partly Cloudy
4:56 PM 57.0 °F - 12.9 °F 18% 30.01 in 10.0 mi NW 12.7 mph - N/A   Partly Cloudy
5:56 PM 55.0 °F - 15.1 °F 21% 30.02 in 10.0 mi North 5.8 mph - N/A   Partly Cloudy
6:56 PM 55.0 °F - 16.0 °F 22% 30.05 in 10.0 mi Calm Calm - N/A   Clear
7:56 PM 53.1 °F - 19.0 °F 26% 30.07 in 10.0 mi NNE 4.6 mph - N/A   Clear
8:56 PM 50.0 °F - 19.4 °F 30% 30.11 in 10.0 mi NNE 8.1 mph - N/A   Clear
9:56 PM 48.0 °F - 19.0 °F 32% 30.12 in 10.0 mi NNE 4.6 mph - N/A   Clear
10:56 PM 46.9 °F - 19.0 °F 33% 30.14 in 10.0 mi ENE 5.8 mph - N/A   Clear
11:56 PM 48.0 °F - 18.0 °F 30% 30.16 in 10.0 mi NE 4.6 mph - N/A   Clear